Time,TemperatureF,DewpointF,PressureIn,WindDirection,WindDirectionDegrees,WindSpeedMPH,WindSpeedGustMPH,Humidity,HourlyPrecipIn,Conditions,Clouds,dailyrainin,SolarRadiationWatts/m^2,SoftwareType,DateUTC
2013-03-16 00:03:00,29.0,25.0,-100.00,North,356,10.0,20.0,85,0.00,,,0.00,0.000000,,2013-03-16 04:03:00,
2013-03-16 00:13:00,29.0,25.0,-100.00,North,356,10.0,20.0,85,0.00,,,0.00,0.000000,,2013-03-16 04:13:00,
2013-03-16 00:33:00,29.0,25.0,-100.00,North,1,7.0,21.0,85,0.00,,,0.00,0.000000,,2013-03-16 04:33:00,
2013-03-16 00:43:00,29.0,25.0,-100.00,North,1,7.0,21.0,85,0.00,,,0.00,0.000000,,2013-03-16 04:43:00,
2013-03-16 00:53:00,29.0,25.0,-100.00,North,1,7.0,21.0,85,0.00,,,0.00,0.000000,,2013-03-16 04:53:00,
2013-03-16 01:03:00,29.0,25.0,-100.00,North,1,7.0,21.0,85,0.00,,,0.00,0.000000,,2013-03-16 05:03:00,
2013-03-16 01:12:00,29.0,25.0,-100.00,North,1,7.0,21.0,85,0.00,,,0.00,0.000000,,2013-03-16 05:12:00,
2013-03-16 01:32:00,28.0,25.0,-100.00,North,355,8.0,14.0,88,0.00,,,0.00,0.000000,,2013-03-16 05:32:00,
2013-03-16 01:42:00,28.0,25.0,-100.00,North,355,8.0,14.0,88,0.00,,,0.00,0.000000,,2013-03-16 05:42:00,
2013-03-16 01:53:00,28.0,25.0,-100.00,North,355,8.0,14.0,88,0.00,,,0.00,0.000000,,2013-03-16 05:53:00,
2013-03-16 02:02:00,28.0,25.0,-100.00,North,355,8.0,14.0,88,0.00,,,0.00,0.000000,,2013-03-16 06:02:00,
2013-03-16 02:12:00,28.0,25.0,-100.00,North,355,8.0,14.0,88,0.00,,,0.00,0.000000,,2013-03-16 06:12:00,
2013-03-16 02:32:00,28.0,24.0,-100.00,North,5,7.0,14.0,85,0.00,,,0.00,0.000000,,2013-03-16 06:32:00,
2013-03-16 02:42:00,28.0,24.0,-100.00,North,5,7.0,14.0,85,0.00,,,0.00,0.000000,,2013-03-16 06:42:00,
2013-03-16 02:52:00,28.0,24.0,-100.00,North,5,7.0,14.0,85,0.00,,,0.00,0.000000,,2013-03-16 06:52:00,
2013-03-16 03:02:00,28.0,24.0,-100.00,North,5,7.0,14.0,85,0.00,,,0.00,0.000000,,2013-03-16 07:02:00,
2013-03-16 03:12:00,28.0,24.0,-100.00,North,5,7.0,14.0,85,0.00,,,0.00,0.000000,,2013-03-16 07:12:00,
2013-03-16 03:42:00,28.0,21.0,-100.00,North,7,8.0,17.0,76,0.00,,,0.00,0.000000,,2013-03-16 07:42:00,
2013-03-16 03:53:00,28.0,21.0,-100.00,North,7,8.0,17.0,76,0.00,,,0.00,0.000000,,2013-03-16 07:53:00,
2013-03-16 04:03:00,28.0,21.0,-100.00,North,7,8.0,17.0,76,0.00,,,0.00,0.000000,,2013-03-16 08:03:00,
2013-03-16 04:12:00,28.0,21.0,-100.00,North,7,8.0,17.0,76,0.00,,,0.00,0.000000,,2013-03-16 08:12:00,
2013-03-16 04:42:00,27.0,21.0,-100.00,North,6,6.0,11.0,77,0.00,,,0.00,0.000000,,2013-03-16 08:42:00,
2013-03-16 04:52:00,27.0,21.0,-100.00,North,6,6.0,11.0,77,0.00,,,0.00,0.000000,,2013-03-16 08:52:00,
2013-03-16 05:02:00,27.0,21.0,-100.00,North,6,6.0,11.0,77,0.00,,,0.00,0.000000,,2013-03-16 09:02:00,
2013-03-16 05:12:00,27.0,21.0,-100.00,North,6,6.0,11.0,77,0.00,,,0.00,0.000000,,2013-03-16 09:12:00,
2013-03-16 05:43:00,27.0,21.0,-100.00,North,5,2.0,8.0,78,0.00,,,0.00,0.000000,,2013-03-16 09:43:00,
2013-03-16 05:53:00,27.0,21.0,-100.00,North,5,2.0,8.0,78,0.00,,,0.00,0.000000,,2013-03-16 09:53:00,
2013-03-16 06:03:00,27.0,21.0,-100.00,North,5,2.0,8.0,78,0.00,,,0.00,0.000000,,2013-03-16 10:03:00,
2013-03-16 06:12:00,27.0,21.0,-100.00,North,5,2.0,8.0,78,0.00,,,0.00,0.000000,,2013-03-16 10:12:00,
2013-03-16 06:42:00,27.0,21.0,-100.00,North,5,1.0,4.0,78,0.00,,,0.00,0.000000,,2013-03-16 10:42:00,
2013-03-16 06:53:00,27.0,21.0,-100.00,North,5,1.0,4.0,78,0.00,,,0.00,0.000000,,2013-03-16 10:53:00,
2013-03-16 07:03:00,27.0,21.0,-100.00,North,5,1.0,4.0,78,0.00,,,0.00,0.000000,,2013-03-16 11:03:00,
2013-03-16 07:12:00,27.0,21.0,-100.00,North,5,1.0,4.0,78,0.00,,,0.00,0.000000,,2013-03-16 11:12:00,
2013-03-16 07:43:00,27.0,21.0,-100.00,NNE,23,2.0,4.0,77,0.00,,,0.00,0.000000,,2013-03-16 11:43:00,
2013-03-16 07:53:00,27.0,21.0,-100.00,NNE,23,2.0,4.0,77,0.00,,,0.00,0.000000,,2013-03-16 11:53:00,
2013-03-16 08:02:00,27.0,21.0,-100.00,NNE,23,2.0,4.0,77,0.00,,,0.00,0.000000,,2013-03-16 12:02:00,
2013-03-16 08:12:00,27.0,21.0,-100.00,NNE,23,2.0,4.0,77,0.00,,,0.00,0.000000,,2013-03-16 12:12:00,
2013-03-16 08:43:00,26.0,19.0,-100.00,North,6,4.0,6.0,76,0.00,,,0.00,10.000000,,2013-03-16 12:43:00,
2013-03-16 08:53:00,26.0,19.0,-100.00,North,6,4.0,6.0,76,0.00,,,0.00,10.000000,,2013-03-16 12:53:00,
2013-03-16 09:02:00,26.0,19.0,-100.00,North,6,4.0,6.0,76,0.00,,,0.00,10.000000,,2013-03-16 13:02:00,
2013-03-16 09:12:00,26.0,19.0,-100.00,North,6,4.0,6.0,76,0.00,,,0.00,10.000000,,2013-03-16 13:12:00,
2013-03-16 09:43:00,26.0,23.0,-100.00,North,5,4.0,6.0,87,0.00,,,0.00,44.000000,,2013-03-16 13:43:00,
2013-03-16 09:53:00,26.0,23.0,-100.00,North,5,4.0,6.0,87,0.00,,,0.00,44.000000,,2013-03-16 13:53:00,
2013-03-16 10:03:00,26.0,23.0,-100.00,North,5,4.0,6.0,87,0.00,,,0.00,44.000000,,2013-03-16 14:03:00,
2013-03-16 10:12:00,26.0,23.0,-100.00,North,5,4.0,6.0,87,0.00,,,0.00,44.000000,,2013-03-16 14:12:00,
2013-03-16 10:42:00,26.0,24.0,-100.00,North,5,4.0,7.0,91,0.00,,,0.00,53.000000,,2013-03-16 14:42:00,
2013-03-16 10:53:00,26.0,24.0,-100.00,North,5,4.0,7.0,91,0.00,,,0.00,53.000000,,2013-03-16 14:53:00,
2013-03-16 11:03:00,26.0,24.0,-100.00,North,5,4.0,7.0,91,0.00,,,0.00,53.000000,,2013-03-16 15:03:00,
2013-03-16 11:13:00,26.0,24.0,-100.00,North,5,4.0,7.0,91,0.00,,,0.00,53.000000,,2013-03-16 15:13:00,
2013-03-16 11:44:00,26.0,24.0,-100.00,North,9,4.0,9.0,92,0.00,,,0.00,31.000000,,2013-03-16 15:44:00,
2013-03-16 11:53:00,26.0,24.0,-100.00,North,9,4.0,9.0,92,0.00,,,0.00,31.000000,,2013-03-16 15:53:00,
2013-03-16 12:03:00,26.0,24.0,-100.00,North,9,4.0,9.0,92,0.00,,,0.00,31.000000,,2013-03-16 16:03:00,
2013-03-16 12:13:00,26.0,24.0,-100.00,North,9,4.0,9.0,92,0.00,,,0.00,31.000000,,2013-03-16 16:13:00,
2013-03-16 12:43:00,26.0,24.0,-100.00,North,7,4.0,9.0,92,0.00,,,0.00,29.000000,,2013-03-16 16:43:00,
2013-03-16 12:53:00,26.0,24.0,-100.00,North,7,4.0,9.0,92,0.00,,,0.00,29.000000,,2013-03-16 16:53:00,
2013-03-16 13:03:00,26.0,24.0,-100.00,North,7,4.0,9.0,92,0.00,,,0.00,29.000000,,2013-03-16 17:03:00,
2013-03-16 13:13:00,26.0,24.0,-100.00,North,7,4.0,9.0,92,0.00,,,0.00,29.000000,,2013-03-16 17:13:00,
2013-03-16 13:43:00,26.0,24.0,-100.00,North,8,5.0,11.0,91,0.00,,,0.00,25.000000,,2013-03-16 17:43:00,
2013-03-16 13:53:00,26.0,24.0,-100.00,North,8,5.0,11.0,91,0.00,,,0.00,25.000000,,2013-03-16 17:53:00,
2013-03-16 14:03:00,26.0,24.0,-100.00,North,8,5.0,11.0,91,0.00,,,0.00,25.000000,,2013-03-16 18:03:00,
2013-03-16 14:13:00,26.0,24.0,-100.00,North,8,5.0,11.0,91,0.00,,,0.00,25.000000,,2013-03-16 18:13:00,
2013-03-16 14:43:00,27.0,24.0,-100.00,North,8,6.0,11.0,90,0.00,,,0.00,32.000000,,2013-03-16 18:43:00,
2013-03-16 14:53:00,27.0,24.0,-100.00,North,8,6.0,11.0,90,0.00,,,0.00,32.000000,,2013-03-16 18:53:00,
2013-03-16 15:02:00,27.0,24.0,-100.00,North,8,6.0,11.0,90,0.00,,,0.00,32.000000,,2013-03-16 19:02:00,
2013-03-16 15:12:00,27.0,24.0,-100.00,North,8,6.0,11.0,90,0.00,,,0.00,32.000000,,2013-03-16 19:12:00,
2013-03-16 15:42:00,27.0,25.0,-100.00,North,8,4.0,10.0,91,0.00,,,0.00,27.000000,,2013-03-16 19:42:00,
2013-03-16 15:53:00,27.0,25.0,-100.00,North,8,4.0,10.0,91,0.00,,,0.00,27.000000,,2013-03-16 19:53:00,
2013-03-16 16:03:00,27.0,25.0,-100.00,North,8,4.0,10.0,91,0.00,,,0.00,27.000000,,2013-03-16 20:03:00,
2013-03-16 16:12:00,27.0,25.0,-100.00,North,8,4.0,10.0,91,0.00,,,0.00,27.000000,,2013-03-16 20:12:00,
2013-03-16 16:42:00,27.0,25.0,-100.00,North,4,3.0,8.0,91,0.00,,,0.00,17.000000,,2013-03-16 20:42:00,
2013-03-16 16:53:00,27.0,25.0,-100.00,North,4,3.0,8.0,91,0.00,,,0.00,17.000000,,2013-03-16 20:53:00,
2013-03-16 17:02:00,27.0,25.0,-100.00,North,4,3.0,8.0,91,0.00,,,0.00,17.000000,,2013-03-16 21:02:00,
2013-03-16 17:12:00,27.0,25.0,-100.00,North,4,3.0,8.0,91,0.00,,,0.00,17.000000,,2013-03-16 21:12:00,
2013-03-16 17:43:00,26.0,25.0,-100.00,North,4,3.0,7.0,94,0.00,,,0.00,13.000000,,2013-03-16 21:43:00,
2013-03-16 17:53:00,26.0,25.0,-100.00,North,4,3.0,7.0,94,0.00,,,0.00,13.000000,,2013-03-16 21:53:00,
2013-03-16 18:03:00,26.0,25.0,-100.00,North,4,3.0,7.0,94,0.00,,,0.00,13.000000,,2013-03-16 22:03:00,
2013-03-16 18:13:00,26.0,25.0,-100.00,North,4,3.0,7.0,94,0.00,,,0.00,13.000000,,2013-03-16 22:13:00,
2013-03-16 18:42:00,26.0,25.0,-100.00,North,4,4.0,9.0,94,0.00,,,0.00,7.000000,,2013-03-16 22:42:00,
2013-03-16 18:53:00,26.0,25.0,-100.00,North,4,4.0,9.0,94,0.00,,,0.00,7.000000,,2013-03-16 22:53:00,
2013-03-16 19:02:00,26.0,25.0,-100.00,North,4,4.0,9.0,94,0.00,,,0.00,7.000000,,2013-03-16 23:02:00,
2013-03-16 19:13:00,26.0,25.0,-100.00,North,4,4.0,9.0,94,0.00,,,0.00,7.000000,,2013-03-16 23:13:00,
2013-03-16 19:42:00,25.0,24.0,-100.00,North,6,2.0,7.0,94,0.00,,,0.00,2.000000,,2013-03-16 23:42:00,
2013-03-16 19:53:00,25.0,24.0,-100.00,North,6,2.0,7.0,94,0.00,,,0.00,2.000000,,2013-03-16 23:53:00,
2013-03-16 20:02:00,25.0,24.0,-100.00,North,6,2.0,7.0,94,0.00,,,0.00,2.000000,,2013-03-17 00:02:00,
2013-03-16 20:12:00,25.0,24.0,-100.00,North,6,2.0,7.0,94,0.00,,,0.00,2.000000,,2013-03-17 00:12:00,
2013-03-16 20:43:00,25.0,24.0,-100.00,North,9,4.0,5.0,95,0.00,,,0.00,0.000000,,2013-03-17 00:43:00,
2013-03-16 20:53:00,25.0,24.0,-100.00,North,9,4.0,5.0,95,0.00,,,0.00,0.000000,,2013-03-17 00:53:00,
2013-03-16 21:03:00,25.0,24.0,-100.00,North,9,4.0,5.0,95,0.00,,,0.00,0.000000,,2013-03-17 01:03:00,
2013-03-16 21:12:00,25.0,24.0,-100.00,North,9,4.0,5.0,95,0.00,,,0.00,0.000000,,2013-03-17 01:12:00,
2013-03-16 21:43:00,25.0,24.0,-100.00,NNE,13,3.0,5.0,95,0.00,,,0.00,0.000000,,2013-03-17 01:43:00,
2013-03-16 21:53:00,25.0,24.0,-100.00,NNE,13,3.0,5.0,95,0.00,,,0.00,0.000000,,2013-03-17 01:53:00,
2013-03-16 22:03:00,25.0,24.0,-100.00,NNE,13,3.0,5.0,95,0.00,,,0.00,0.000000,,2013-03-17 02:03:00,
2013-03-16 22:13:00,25.0,24.0,-100.00,NNE,13,3.0,5.0,95,0.00,,,0.00,0.000000,,2013-03-17 02:13:00,
2013-03-16 22:43:00,26.0,25.0,-100.00,North,4,5.0,9.0,96,0.00,,,0.00,0.000000,,2013-03-17 02:43:00,
2013-03-16 22:53:00,26.0,25.0,-100.00,North,4,5.0,9.0,96,0.00,,,0.00,0.000000,,2013-03-17 02:53:00,
2013-03-16 23:03:00,26.0,25.0,-100.00,North,4,5.0,9.0,96,0.00,,,0.00,0.000000,,2013-03-17 03:03:00,
2013-03-16 23:12:00,26.0,25.0,-100.00,North,4,5.0,9.0,96,0.00,,,0.00,0.000000,,2013-03-17 03:12:00,
2013-03-16 23:43:00,26.0,25.0,-100.00,North,4,4.0,9.0,95,0.00,,,0.00,0.000000,,2013-03-17 03:43:00,
2013-03-16 23:53:00,26.0,25.0,-100.00,North,4,4.0,9.0,95,0.00,,,0.00,0.000000,,2013-03-17 03:53:00,